Regional Weather Roundup
Issued by NWS

Home | Current Version | Previous Version | Graphics & Text | Print | Product List | Glossary Off
Versions: 1 2 3 4 5 6 7 8 9 10 11 12 13 14 15 16 17 18 19 20 21 22 23 24 25 26 27 28 29 30 31 32 33 34 35 36 37 38 39 40 41 42 43 44 45 46 47 48 49 50

000
ASUS43 KMKX 062111
RWRWI

WISCONSIN REGIONAL WEATHER ROUNDUP
NATIONAL WEATHER SERVICE MILWAUKEE/SULLIVAN WI
400 PM CDT MON JUL 06 2015

NOTE: "FAIR" INDICATES FEW OR NO CLOUDS BELOW 12,000 FEET WITH NO
SIGNIFICANT WEATHER AND/OR OBSTRUCTIONS TO VISIBILITY.

WIZ001-002-006>008-014>016-023>028-062200-
NORTHWEST WISCONSIN

CITY           SKY/WX    TMP DP  RH WIND       PRES   REMARKS
SUPERIOR ARPT  PTSUNNY   67  61  80 NW3       29.93S HAZE
ASHLAND        CLOUDY    60  59  96 N7        29.92S FOG
HAYWARD        LGT RAIN  59  56  89 N8        29.92R VSB 1
SIREN          CLOUDY    66  59  78 N13       29.94R HAZE
CUMBERLAND     CLOUDY    61  55  82 N14       29.93R FOG
RICE LAKE      CLOUDY    63  58  82 N10G18    29.93R HAZE
CHETEK         CLOUDY    63  59  87 N15G26    29.90R FOG
LADYSMITH      LGT RAIN  61  58  91 N14G20    29.89R
EAU CLAIRE     LGT RAIN  64  59  83 N15G24    29.87R
MENOMONIE      CLOUDY    64  61  88 N14G23    29.89R FOG
NEW RICHMOND   CLOUDY    65  60  83 N12       29.94R HAZE
OSCEOLA        CLOUDY    66  63  90 N10G16    29.97R FOG
$$

WIZ003>005-009-010-017-018-062200-
NORTH CENTRAL WISCONSIN

CITY           SKY/WX    TMP DP  RH WIND       PRES   REMARKS
MANITOWISH WTR RAIN      58  58 100 N12G23    29.89R
ARBOR VITAE    LGT RAIN  59  57  93 N15G22    29.88R
WOODRUFF       LGT RAIN  59  57  93 N15G22    29.88R
RHINELANDER    RAIN      63  60  90 N15G26    29.83R FOG
EAGLE RIVER    LGT RAIN  57  57 100 N18       29.84R
LAND O LAKES   LGT RAIN  58  56  94 N13G22    29.87S
PHILLIPS       DRIZZLE   58  57  96 N13G22    29.87R
TOMAHAWK       HVY RAIN  66  64  91 N15G24    29.82R
MEDFORD        DRIZZLE   64  62  94 NW22G28   29.83R
MERRILL        LGT RAIN  72  72  98 S6        29.78F
$$

WIZ029-030-035-036-043>047-062200-
CENTRAL WISCONSIN

CITY           SKY/WX    TMP DP  RH WIND       PRES   REMARKS
WAUSAU         LGT RAIN  73  70  90 SW9       29.78F
MOSINEE        LGT RAIN  72  72 100 SW10      29.80S
MARSHFIELD     HVY RAIN  71  66  84 W15G23    29.81S VSB 1
STEVENS POINT  HVY RAIN  71  70  95 SW15G21   29.81S
WAUPACA        LGT RAIN  80  73  79 S8        29.79F HX  84
WAUTOMA        CLOUDY    80  70  71 S10       29.82S HX  83
WISC RAPIDS    LGT RAIN  73  69  87 W10       29.81S
CAMP DOUGLAS   CLOUDY    75  73  94 SW9G18    29.82S
$$

WIZ011>013-019>022-031-037>040-048>050-062200-
NORTHEAST WISCONSIN

CITY           SKY/WX    TMP DP  RH WIND       PRES   REMARKS
ANTIGO         LGT RAIN  72  71  96 S6        29.81F
SHAWANO        LGT RAIN  80  71  74 S5        29.79F HX  83
OCONTO         CLOUDY    79  73  82 SW7       29.79R HX  82
STURGEON BAY   CLOUDY    70  63  78 S12       29.83S
GREEN BAY      CLOUDY    79  70  74 SW9       29.80R HX  82
MANITOWOC      CLOUDY    71  66  84 MISG      29.82S HAZE
APPLETON       PTSUNNY   79  68  69 SW9       29.83R HX  81
CLINTONVILLE   LGT RAIN  79  68  69 S9        29.79F HX  81
OSHKOSH        CLOUDY    78  70  76 S14       29.83R HX  80
$$

WIZ032>034-041-042-053>061-062200-
SOUTHWEST WISCONSIN

CITY           SKY/WX    TMP DP  RH WIND       PRES   REMARKS
LA CROSSE      CLOUDY    76  69  79 S8        29.80S
SPARTA         RAIN      74  67  80 S3        29.83S
VIROQUA        CLOUDY    73  71  95 SW8       29.85F
BOSCOBEL       CLOUDY    80  71  74 SW10      29.83F HX  84
PRAIRIE DU CHI CLOUDY    78  68  71 SW9       29.82F HX  80
PLATTEVILLE    CLOUDY    78  71  78 SW16G22   29.86F HX  80
$$

WIZ056-057-062-063-064-067-068-062200-
SOUTH CENTRAL WISCONSIN

CITY           SKY/WX    TMP DP  RH WIND       PRES   REMARKS
REEDSBURG      CLOUDY    77  70  79 SW9       29.84S
BARABOO/DELLS  CLOUDY    77  67  72 SW10      29.85R
LONE ROCK      CLOUDY    79  68  69 W10       29.84S HX  81
MINERAL POINT  CLOUDY    79  70  73 S12       29.87F HX  81
MADISON        CLOUDY    79  70  74 S12       29.84F HX  82
MIDDLETON      CLOUDY    80  67  64 SW10G21   29.86S HX  83
WATERTOWN      CLOUDY    79  76  91 S8G16     29.84S HX  83
MONROE         CLOUDY    79  70  73 SW17G23   29.87S HX  81
JANESVILLE     CLOUDY    79  70  73 S12       29.86S HX  81
$$

WIZ051-052-058>065-066-070>072-062200-
SOUTHEAST WISCONSIN

CITY           SKY/WX    TMP DP  RH WIND       PRES   REMARKS
MILWAUKEE      CLOUDY    77  68  73 S13       29.84F
WAUKESHA       PTSUNNY   75  70  83 S8        29.86S
MILWAUKEE/TIMM SUNNY     77  68  73 S7        29.85S
RACINE         LGT RAIN  74  69  85 S9        29.87F
BURLINGTON     CLOUDY    74  70  86 S8        29.86F
KENOSHA        CLOUDY    75  69  81 S10       29.86F
FOND DU LAC    CLOUDY    79  71  76 S12       29.83R HX  82
SHEBOYGAN      CLOUDY    77  71  82 S14       29.83R
WEST BEND      CLOUDY    77  70  78 S9        29.84S
JUNEAU         CLOUDY    77  71  81 S5        29.86S
$$

LSZ147-162-062200-
LAKE SUPERIOR

STATION/POSITION TIME  TEMP    WIND        PRES    WAVE
                       AIR SEA DIR/SP/G            HT/PER
                 (UTC) (F)     (DEG/KT/KT) (MB)    (FT/S)
W MID LAKE BUOY  2050   51 39  320/  4/  6 1012.5S   0
DEVILS ISLAND    2000   59     270/  1/  2 1013.1R
PORT WING        2040   61     290/  3/  4 1013.5S
SAXON HARBOR     2040   59      CALM  /  7 1012.5S
$$

LMZ867-665-643>646-062200-
LAKE MICHIGAN

STATION/POSITION TIME  TEMP    WIND        PRES    WAVE
                       AIR SEA DIR/SP/G            HT/PER
                 (UTC) (F)     (DEG/KT/KT) (MB)    (FT/S)
CHAMBERS ISLAND  2040   72     150/  4/  9 1008.8F
N MID LAKE BUOY  2050   60 56  220/ 17/ 21 1009.4F   3/ 5
NORTHPORT PIER   2000   65     160/  8/ 14 1009.5F
SISTER BAY       2029   71     190/ 16/ 20   N/A
ALGOMA LAKESHORE 2011          210/ 13/ 15   N/A
KEWAUNEE LAKESHO 2000   60     180/ 15/ 16 1009.4F
SHEBOYGAN LAKESH 2100   68     200/ 15/ 17 1010.2R
PORT WASHINGTON  2040   67     190/  8/ 11 1011.5R
ATWATER BUOY     2000   65 59  140/ 14/ 16 1011.6F
MILWAUKEE LAKESH 2000   67     140/ 14/ 16   N/A
KENOSHA   LAKESH 2100   66     180/ 13/ 17 1010.8F
$$

TC  - TEMPERATURE IN CELSIUS
VSB - VISIBILITY IN STATUTE MILES
WCI - WIND CHILL INDEX
HX  - HEAT INDEX



USA.gov is the U.S. government's official web portal to all federal, state and local government web resources and services.